Regional Weather Roundup
Issued by NWS Memphis, TN

Home | Current Version | Previous Version | Text Only | Print | Product List | Glossary On
Versions: 1 2 3 4 5 6 7 8 9 10 11 12 13 14 15 16 17 18 19 20 21 22 23 24 25 26 27 28 29 30 31 32 33 34 35 36 37 38 39 40 41 42 43 44 45 46 47 48 49 50
000
ASUS44 KMEG 220510
RWRMEG
MEMPHIS CWA HOURLY WEATHER ROUNDUP
NATIONAL WEATHER SERVICE MEMPHIS TN
1200 AM CDT WED OCT 22 2014

...WEST TENNESSEE...

CITY           SKY/WX    TMP DP  RH WIND       PRES   REMARKS
MEMPHIS INTL   CLEAR     61  47  59 NE8       30.11S
NWS MEMPHIS      N/A     55 N/A N/A MISG        N/A
JACKSON        CLEAR     55  46  71 E9        30.12F
LEXINGTON      CLEAR     52  45  76 NE3       30.12S
SAVANNAH       CLEAR     48  48 100 N3        30.11F
DYERSBURG      CLEAR     55  39  54 NE5       30.15S
UNION CITY     CLEAR     48  45  87 NE5       30.14S
PARIS          CLEAR     50  43  76 NE9       30.16R


...EASTERN ARKANSAS...

CITY           SKY/WX    TMP DP  RH WIND       PRES   REMARKS
JONESBORO      CLEAR     57  48  72 NE8       30.13S
WEST MEMPHIS   CLEAR     56  49  77 NE3       30.10S
BATESVILLE     CLEAR     55  48  76 NE8       30.13R
NEWPORT        CLEAR     53  50  90 NE6       30.14S
WALNUT RIDGE   CLEAR     54  45  71 N6        30.14R
BLYTHEVILLE    CLEAR     55  48  77 NE6       30.13S
SEARCY         CLEAR     51  50  96 NW3       30.12F
STUTTGART      CLEAR     57  46  67 NE6       30.10S
PINE BLUFF     CLEAR     54  50  86 CALM      30.10S
MONTICELLO     CLEAR     57  53  86 CALM      30.09F


...NORTH MISSISSIPPI...

CITY           SKY/WX    TMP DP  RH WIND       PRES   REMARKS
TUPELO         CLEAR     52  48  86 NE9       30.08F
OXFORD         CLEAR     48  46  93 CALM      30.11S
OLIVE BRANCH   CLEAR     54  52  94 NE5       30.11S
TUNICA         CLEAR     52  48  87 CALM      30.11S
CLARKSDALE     CLEAR     54  52  94 CALM      30.10S
CORINTH        CLEAR     57  46  67 NE6       30.10R
GRENADA          N/A    N/A N/A N/A MISG        N/A
GREENWOOD      CLEAR     55  51  86 CALM      30.08F
COLUMBUS       CLEAR     49  49  97 NW2       30.07S
STARKVILLE     FAIR      50  50 100 CALM      30.07F
GOLDEN TRIANGL CLEAR     52  46  82 NW3       30.07S


...SOUTHEAST MISSOURI...

CITY           SKY/WX    TMP DP  RH WIND       PRES   REMARKS
WEST PLAINS    CLEAR     52  44  74 E3        30.17S
POPLAR BLUFF   CLEAR     51  43  74 N5        30.15S
CAPE GIRARDEAU CLEAR     51  44  77 NE7       30.17F


...NORTHWEST ALABAMA...

CITY           SKY/WX    TMP DP  RH WIND       PRES   REMARKS
MUSCLE SHOALS  CLEAR     59  46  62 NE7       30.10S


...MIDDLE TENNESSEE...

CITY           SKY/WX    TMP DP  RH WIND       PRES   REMARKS
NASHVILLE      CLEAR     52  43  71 N5        30.15S
CLARKSVILLE    CLEAR     48  42  80 NE6       30.16R
COLUMBIA         N/A     48  48 100 CALM      30.11S


...WESTERN KENTUCKY...

CITY           SKY/WX    TMP DP  RH WIND       PRES   REMARKS
PADUCAH        CLEAR     49  43  80 CALM      30.16S
FORT CAMPBELL  CLEAR     47  43  87 N6        30.16R


...CENTRAL ARKANSAS...

CITY           SKY/WX    TMP DP  RH WIND       PRES   REMARKS
LITTLE ROCK    CLEAR     57  52  83 CALM      30.10F


SKY/WX REPORTED AS FAIR MEANS FEW OR NO CLOUDS BELOW
12 THOUSAND FEET.




USA.gov is the U.S. government's official web portal to all federal, state and local government web resources and services.